When you browse on this site, cookies collect data to enhance your experience and personalize the content and advertising you see.
Visit our Privacy Policy to learn more. By continuing to use the site, you agree to this use of cookies and data.
  • In Belgium
  • List of Countries
  • For 7 days
  • Water Temperature
  • Weather Map
  • Weather Widgets
  • user-avatar
    Login

    Hourly Weather Pyavochnoe

    Today, 26 February, Wednesday

    Time Temperature Precipitation Wind Pressure Humidity
    00:00 -6°C° 0 mm 3 mps 735 mmHg 87%
    01:00 -6°C° 0 mm 3 mps 735 mmHg 88%
    02:00 -6°C° 0 mm 3 mps 734 mmHg 91%
    03:00 -5°C° 0 mm 4 mps 734 mmHg 93%
    04:00 -4°C° 0 mm 4 mps 733 mmHg 94%
    05:00 -5°C° 0 mm 5 mps 733 mmHg 96%
    06:00 -5°C° 0 mm 5 mps 733 mmHg 95%
    07:00 -4°C° 0 mm 5 mps 732 mmHg 95%
    08:00 -4°C° 0 mm 5 mps 732 mmHg 95%
    09:00 -4°C° 0.2 mm 5 mps 732 mmHg 96%
    10:00 -3°C° 0.2 mm 6 mps 731 mmHg 97%
    11:00 -3°C° 0.2 mm 6 mps 731 mmHg 99%
    12:00 -3°C° 0.6 mm 6 mps 731 mmHg 99%
    13:00 -2°C° 0.6 mm 6 mps 730 mmHg 99%
    14:00 -2°C° 0.6 mm 6 mps 730 mmHg 99%
    15:00 -2°C° 0.2 mm 6 mps 730 mmHg 99%
    16:00 -2°C° 0.2 mm 6 mps 730 mmHg 99%
    17:00 0°C° 0.2 mm 5 mps 730 mmHg 98%
    18:00 0°C° 0.1 mm 5 mps 730 mmHg 98%
    19:00 -1°C° 0.1 mm 4 mps 730 mmHg 98%
    20:00 -1°C° 0.1 mm 4 mps 730 mmHg 98%
    21:00 0°C° 0.1 mm 3 mps 730 mmHg 98%
    22:00 0°C° 0.1 mm 3 mps 730 mmHg 98%
    23:00 0°C° 0.1 mm 3 mps 730 mmHg 99%

    Tomorrow, 27 February, Thursday

    Time Temperature Precipitation Wind Pressure Humidity
    00:00 0°C° 0.1 mm 3 mps 730 mmHg 98%
    01:00 0°C° 0.1 mm 3 mps 729 mmHg 98%
    02:00 0°C° 0.1 mm 3 mps 729 mmHg 98%
    03:00 -1°C° 0 mm 4 mps 729 mmHg 98%
    04:00 -1°C° 0 mm 4 mps 729 mmHg 97%
    05:00 -1°C° 0 mm 5 mps 728 mmHg 97%
    06:00 -1°C° 0 mm 5 mps 728 mmHg 96%
    07:00 -2°C° 0 mm 6 mps 728 mmHg 95%
    08:00 -2°C° 0 mm 6 mps 728 mmHg 95%
    09:00 -2°C° 0 mm 6 mps 728 mmHg 96%
    10:00 -2°C° 0 mm 6 mps 728 mmHg 98%
    11:00 -1°C° 0 mm 6 mps 728 mmHg 99%
    12:00 0°C° 0 mm 5 mps 728 mmHg 99%
    13:00 0°C° 0 mm 5 mps 728 mmHg 99%
    14:00 0°C° 0 mm 4 mps 728 mmHg 99%
    15:00 0°C° 0 mm 4 mps 728 mmHg 99%
    16:00 +1°C° 0 mm 3 mps 728 mmHg 99%
    17:00 +1°C° 0 mm 3 mps 727 mmHg 99%
    18:00 +1°C° 0 mm 3 mps 728 mmHg 99%
    19:00 +1°C° 0 mm 3 mps 728 mmHg 99%
    20:00 +1°C° 0 mm 3 mps 728 mmHg 99%
    21:00 0°C° 0 mm 3 mps 728 mmHg 98%
    22:00 +1°C° 0 mm 2 mps 728 mmHg 96%
    23:00 +1°C° 0 mm 2 mps 728 mmHg 95%

    Day after tomorrow, 28 February, Friday

    Time Temperature Precipitation Wind Pressure Humidity
    00:00 +2°C° 0 mm 1 mps 728 mmHg 94%
    01:00 +2°C° 0 mm 1 mps 728 mmHg 93%
    02:00 +1°C° 0 mm 0 mps 728 mmHg 91%
    03:00 +2°C° 0.4 mm 1 mps 728 mmHg 94%
    04:00 +1°C° 0.4 mm 2 mps 728 mmHg 96%
    05:00 +1°C° 0.4 mm 2 mps 727 mmHg 98%
    06:00 -1°C° 1.9 mm 3 mps 727 mmHg 98%
    07:00 -2°C° 1.9 mm 4 mps 727 mmHg 99%
    08:00 -2°C° 1.9 mm 4 mps 727 mmHg 99%
    09:00 -2°C° 0.3 mm 4 mps 727 mmHg 99%
    10:00 -2°C° 0.3 mm 5 mps 727 mmHg 99%
    11:00 -2°C° 0.3 mm 5 mps 727 mmHg 98%
    12:00 -1°C° 0.2 mm 4 mps 728 mmHg 98%
    13:00 -1°C° 0.2 mm 4 mps 729 mmHg 97%
    14:00 -1°C° 0.2 mm 4 mps 729 mmHg 96%
    15:00 -2°C° 0 mm 4 mps 730 mmHg 93%
    16:00 -2°C° 0 mm 4 mps 731 mmHg 89%
    17:00 -1°C° 0 mm 3 mps 732 mmHg 86%
    18:00 -3°C° 0 mm 4 mps 733 mmHg 86%
    19:00 -3°C° 0 mm 4 mps 733 mmHg 86%
    20:00 -3°C° 0 mm 4 mps 734 mmHg 86%
    21:00 -4°C° 0 mm 3 mps 734 mmHg 86%
    22:00 -4°C° 0 mm 3 mps 735 mmHg 87%
    23:00 -4°C° 0 mm 3 mps 735 mmHg 87%

    29 February, Saturday

    Time Temperature Precipitation Wind Pressure Humidity
    00:00 -5°C° 0 mm 3 mps 735 mmHg 87%
    01:00 -5°C° 0 mm 3 mps 736 mmHg 87%
    02:00 -5°C° 0 mm 3 mps 736 mmHg 87%
    03:00 -5°C° 0 mm 3 mps 736 mmHg 87%
    04:00 -4°C° 0 mm 2 mps 736 mmHg 87%
    05:00 -3°C° 0 mm 2 mps 736 mmHg 87%
    06:00 -3°C° 0 mm 2 mps 736 mmHg 87%
    07:00 -3°C° 0 mm 2 mps 736 mmHg 88%
    08:00 -3°C° 0 mm 2 mps 736 mmHg 88%
    09:00 -2°C° 0 mm 2 mps 737 mmHg 88%
    10:00 -1°C° 0 mm 2 mps 737 mmHg 88%
    11:00 -1°C° 0 mm 2 mps 737 mmHg 87%
    12:00 -1°C° 0 mm 2 mps 737 mmHg 89%
    13:00 -1°C° 0 mm 2 mps 737 mmHg 90%
    14:00 +2°C° 0 mm 1 mps 737 mmHg 92%
    15:00 +1°C° 0 mm 1 mps 737 mmHg 91%
    16:00 0°C° 0 mm 1 mps 737 mmHg 90%
    17:00 0°C° 0 mm 1 mps 737 mmHg 89%
    18:00 0°C° 0 mm 1 mps 738 mmHg 89%
    19:00 0°C° 0 mm 1 mps 738 mmHg 88%
    20:00 -1°C° 0 mm 1 mps 739 mmHg 87%
    21:00 -2°C° 0 mm 0 mps 739 mmHg 87%
    22:00 -2°C° 0 mm 0 mps 739 mmHg 86%
    23:00 -2°C° 0 mm 0 mps 740 mmHg 86%

    1 March, Sunday

    Time Temperature Precipitation Wind Pressure Humidity
    00:00 -2°C° 0 mm 0 mps 740 mmHg 86%
    01:00 -2°C° 0 mm 0 mps 740 mmHg 86%
    02:00 -2°C° 0 mm 0 mps 741 mmHg 86%
    03:00 -1°C° 0 mm 1 mps 741 mmHg 87%
    04:00 -1°C° 0 mm 1 mps 742 mmHg 87%
    05:00 -2°C° 0 mm 1 mps 742 mmHg 87%
    06:00 -4°C° 0 mm 2 mps 743 mmHg 88%
    07:00 -4°C° 0 mm 2 mps 743 mmHg 89%
    08:00 -3°C° 0 mm 2 mps 744 mmHg 90%
    09:00 -1°C° 0 mm 1 mps 744 mmHg 89%
    10:00 0°C° 0 mm 1 mps 744 mmHg 88%
    11:00 +1°C° 0 mm 1 mps 745 mmHg 86%
    12:00 +1°C° 0 mm 1 mps 745 mmHg 88%
    13:00 +1°C° 0 mm 1 mps 745 mmHg 89%
    14:00 +1°C° 0 mm 1 mps 745 mmHg 90%
    15:00 +1°C° 0 mm 1 mps 745 mmHg 89%
    16:00 0°C° 0 mm 1 mps 745 mmHg 88%
    17:00 -1°C° 0 mm 1 mps 745 mmHg 88%
    18:00 -1°C° 0 mm 1 mps 746 mmHg 87%
    19:00 -3°C° 0 mm 2 mps 746 mmHg 87%
    20:00 -3°C° 0 mm 2 mps 746 mmHg 87%
    21:00 -3°C° 0 mm 2 mps 746 mmHg 89%
    22:00 -3°C° 0 mm 2 mps 746 mmHg 90%
    23:00 -4°C° 0 mm 3 mps 747 mmHg 91%

    2 March, Monday

    Time Temperature Precipitation Wind Pressure Humidity
    00:00 -4°C° 0 mm 3 mps 746 mmHg 92%
    01:00 -4°C° 0 mm 3 mps 746 mmHg 93%
    02:00 -4°C° 0 mm 3 mps 746 mmHg 93%
    03:00 -4°C° 0 mm 3 mps 746 mmHg 94%
    04:00 -4°C° 0 mm 3 mps 746 mmHg 94%
    05:00 -4°C° 0 mm 3 mps 746 mmHg 95%
    06:00 -4°C° 0 mm 4 mps 746 mmHg 95%
    07:00 -4°C° 0 mm 5 mps 746 mmHg 95%
    08:00 -4°C° 0 mm 6 mps 746 mmHg 95%
    09:00 -3°C° 0 mm 6 mps 746 mmHg 93%
    10:00 -3°C° 0 mm 6 mps 745 mmHg 91%
    11:00 -1°C° 0 mm 5 mps 745 mmHg 89%
    12:00 -1°C° 0 mm 5 mps 745 mmHg 89%
    13:00 -1°C° 0 mm 5 mps 745 mmHg 89%
    14:00 -1°C° 0 mm 5 mps 744 mmHg 90%
    15:00 -1°C° 0 mm 5 mps 744 mmHg 89%
    16:00 -1°C° 0 mm 5 mps 744 mmHg 89%
    17:00 -1°C° 0 mm 5 mps 744 mmHg 89%
    18:00 -1°C° 0 mm 4 mps 744 mmHg 88%
    19:00 -1°C° 0 mm 4 mps 744 mmHg 88%
    20:00 -1°C° 0 mm 4 mps 744 mmHg 88%
    21:00 -1°C° 0 mm 4 mps 744 mmHg 87%
    22:00 -1°C° 0 mm 4 mps 744 mmHg 87%
    23:00 -1°C° 0 mm 4 mps 744 mmHg 87%
    Show more